Home > Weather > Ankara > Past weeks

Flag for Turkey Weather for the Past 2 Weeks in Ankara, Turkey

Now
27 °F

Scattered clouds.


Feels Like: 18 °F
Forecast: 17 / 41 °F
Wind: 8 mph from Northeast

Location: Ankara / Esenboga

Current Time: Feb 7, 2016 at 8:28:40 AM

Latest Report: Feb 7, 2016 at 7:50 AM


Visibility: N/A

Pressure: 30.18 "Hg (27.03 "Hg at 871m altitude)

Humidity: 69%

Dew point: 18 °F

Location of AnkaraLocation

Historic Weather in Ankara — Graph

°F

Ankara Temperature Yesterday

Maximum temperature yesterday: 43 °F (at 12:20 AM)
Minimum temperature yesterday: 28 °F (at 7:50 PM)
Average temperature yesterday: 34 °F

High & Low Weather Summary for the Past Weeks

 TemperatureHumidityPressure
High57 °F (Feb 4, 1:20 PM)100% (Jan 29, 4:20 AM)30.42 "Hg (Jan 29, 4:20 AM)
Low-8 °F (Jan 26, 6:20 AM)31% (Feb 5, 1:20 PM)29.71 "Hg (Feb 5, 4:20 PM)
Average28 °F78%30.18 "Hg
* Reported Jan 23 6:20 AM — Feb 7 6:50 AM, Ankara, Weather by CustomWeather, © 2016

Note: Actual official high and low records may vary slightly from our data, if they occured in-between our weather recording intervals... More about our weather records

Advertising

Ankara Weather History for the Previous 24 Hours

 ConditionsComfort  
Time TempWeatherWind HumidityBarometerVisibility
6:50 AM
Sun, Feb 7
25 °FPassing clouds.6 mph74%30.15 "HgN/A
6:20 AM28 °FPassing clouds.7 mph69%30.15 "HgN/A
5:50 AM28 °FPassing clouds.6 mph69%30.12 "HgN/A
5:20 AM28 °FPassing clouds.8 mph69%30.12 "HgN/A
4:50 AM28 °FPassing clouds.6 mph69%30.12 "HgN/A
4:20 AM28 °FPassing clouds.3 mph69%30.12 "HgN/A
3:50 AM28 °FPassing clouds.6 mph69%30.12 "HgN/A
3:20 AM28 °FPassing clouds.7 mph69%30.09 "HgN/A
2:50 AM28 °FPassing clouds.6 mph69%30.09 "HgN/A
2:20 AM27 °FPassing clouds.6 mph74%30.09 "HgN/A
1:50 AM27 °FPassing clouds.10 mph74%30.09 "HgN/A
12:50 AM27 °FPartly cloudy.7 mph74%30.09 "HgN/A
12:20 AM27 °FPartly cloudy.6 mph74%30.07 "HgN/A
11:50 PM
Sat, Feb 6
28 °FPartly cloudy.10 mph69%30.07 "HgN/A
10:50 PM28 °FPartly cloudy.14 mph69%30.07 "HgN/A
10:20 PM28 °FPartly cloudy.14 mph69%30.07 "HgN/A
9:50 PM28 °FPartly cloudy.13 mph69%30.04 "HgN/A
9:20 PM28 °FPartly cloudy.9 mph74%30.04 "HgN/A
8:50 PM30 °FPartly cloudy.12 mph64%30.04 "HgN/A
8:20 PM30 °FPartly cloudy.10 mph64%30.01 "HgN/A
7:50 PM28 °FPartly cloudy.13 mph74%30.01 "HgN/A
7:20 PM30 °FPartly cloudy.16 mph64%29.98 "HgN/A
6:50 PM30 °FPartly cloudy.13 mph64%29.98 "HgN/A
6:20 PM32 °FPartly cloudy.13 mph64%29.98 "HgN/A
5:50 PM32 °FPartly cloudy.17 mph64%29.95 "HgN/A
5:20 PM32 °FPartly cloudy.16 mph60%29.95 "HgN/A
4:50 PM32 °FBroken clouds.17 mph60%29.92 "HgN/A
4:20 PM34 °FBroken clouds.21 mph60%29.92 "HgN/A
3:50 PM32 °FBroken clouds.20 mph69%29.89 "HgN/A
3:20 PM32 °FMore clouds than sun.20 mph75%29.89 "HgN/A
2:50 PM32 °FBroken clouds.18 mph80%29.89 "HgN/A
2:20 PM34 °FMore clouds than sun.20 mph75%29.86 "HgN/A
1:50 PM34 °FMore clouds than sun.16 mph75%29.86 "HgN/A
1:20 PM36 °FBroken clouds.18 mph65%29.86 "HgN/A
12:50 PM36 °FBroken clouds.16 mph70%29.86 "HgN/A
12:20 PM36 °FMore clouds than sun.16 mph75%29.86 "HgN/A
11:50 AM34 °FLight snow. Mostly cloudy.5 mph100%29.86 "Hg4 mi
11:20 AM34 °FLight snow. Cloudy.7 mph93%29.86 "Hg2 mi
10:50 AM32 °FSnow. Cloudy.7 mph100%29.86 "Hg1 mi
10:20 AM34 °FHeavy snow. Cloudy.5 mph93%29.83 "Hg1 mi
9:50 AM34 °FChilly.N/A93%29.83 "HgN/A
9:20 AM32 °FHeavy snow. Cloudy.7 mph93%29.80 "Hg1 mi
8:50 AM32 °FHeavy snow. Cloudy.7 mph93%29.80 "Hg1 mi
8:20 AM34 °FHeavy snow. Cloudy.8 mph87%29.77 "Hg1 mi
Weather by CustomWeather, © 2016

See weather overviewHow to use our weather pages